Regional Weather Roundup
Issued by NWS

Home | Current Version | Previous Version | Text Only | Print | Product List | Glossary On
Versions: 1 2 3 4 5 6 7 8 9 10 11 12 13 14 15 16 17 18 19 20 21 22 23 24
000
ASUS42 KTBW 221713
RWRFL
FLORIDA REGIONAL WEATHER ROUNDUP
NATIONAL WEATHER SERVICE TAMPA BAY RUSKIN FL
1200 PM EST THU FEB 22 2018

NOTE: "FAIR" INDICATES FEW OR NO CLOUDS BELOW 12,000 FEET WITH NO
SIGNIFICANT WEATHER AND/OR OBSTRUCTIONS TO VISIBILITY.

FLZ001>010-012>015-112-114-115-221800-
PANHANDLE FLORIDA

CITY           SKY/WX    TMP DP  RH WIND       PRES   REMARKS
PENSACOLA      FAIR      77  66  68 SE10      30.38F
PENSACOLA NAS  MOSUNNY   75  68  78 E13       30.38S
MILTON NAS     PTSUNNY   79  66  64 SE9       30.38
CRESTVIEW      FAIR      81  63  54 S10       30.40F
DUKE FIELD     MOSUNNY   80  65  58 S10       30.38F
VALPARAISO     MOSUNNY   77  67  70 SE15      30.39S
MARY ESTHER    SUNNY     75  67  76 SE15      30.38S
PANAMA CITY    FAIR      78  67  68 SE12      30.40F
APALACHICOLA   CLOUDY    75  68  78 SE12      30.42S

STATION/POSITION SKY/WX   TEMP    WIND        PRES    WAVE   SWELL
                          AIR SEA DIR/SP/G            HT/PER HT/PER
                          (F)     (DEG/KT/KT) (MB)    (FT/S) (FT/S)
29.2N   88.2W                 75  110/ 14/ 17 1027.6F   5/ 8   3/ 8
28.8N   86.0W              74 73  110/ 12/ 14 1028.1F   4/ 5   2/ 7
PANAMA CITY BEAC           70 69  130/ 14/ 15 1029.8F
TOWER C                    67     110/ 12/ 12 1030.3F

$$
FLZ011-016>038-118-127-128-134-139-239-221800-
NORTH FLORIDA

CITY           SKY/WX    TMP DP  RH WIND       PRES   REMARKS
MARIANNA       FAIR      79  65  62 S7G16     30.40F
TALLAHASSEE    PTSUNNY   78  64  61 E7        30.42F
PERRY          FAIR      80  63  56 E6        30.44F
LIVE OAK       MOSUNNY   79  63  57 CALM      30.45F
CROSS CITY     PTSUNNY   79  64  59 SE8       30.46F
LAKE CITY      FAIR      77  63  61 E7        30.44F
GAINESVILLE    FAIR      80  61  52 SE9       30.45F
WILLISTON      MOSUNNY   84  64  51 E9        30.42F
MAYPORT NAS    FAIR      75  66  73 E7        30.45F
JACKSONVILLE   PTSUNNY   79  64  60 E12       30.44F
JAX NAS        FAIR      80  62  54 SE13      30.45F
JAX CECIL      PTSUNNY   79  68  69 S10       30.44F
FERNANDINA BEA FAIR      77  64  65 E6        30.45F
ST AUGUSTINE   FAIR      76  66  71 E12       30.46F
PALM COAST     MOSUNNY   79  64  61 E12       30.44

STATION/POSITION SKY/WX   TEMP    WIND        PRES    WAVE   SWELL
                          AIR SEA DIR/SP/G            HT/PER HT/PER
                          (F)     (DEG/KT/KT) (MB)    (FT/S) (FT/S)
SHELL POINT      NOT AVBL
KEATON BEACH               74     240/  5/  6 1030.6F
CEDAR KEY                  74     160/  9/ 10 1030.0F
FERNANDINA                 77 65   80/  3/  7 1032.5F
30.7N   81.3W                 65                N/A     4/ 8   2/12
MAYPORT                    69 62   60/  8/  9 1031.4F
31.4N   80.9W              63 59   10/  4/  6 1031.7F   4/ 9   3/ 9
ST AUGUSTINE               69 66   60/  5/  6 1031.5F

$$
FLZ040-043>046-052-053-057-058-063-144-221800-
INTERIOR CENTRAL FLORIDA

CITY           SKY/WX    TMP DP  RH WIND       PRES   REMARKS
OCALA          PTSUNNY   78  63  59 VRB3      30.42F
LEESBURG       PTSUNNY   82  63  52 E10       30.42F
SANFORD        FAIR      81  63  54 E10       30.41F
ORLANDO EXEC   PTSUNNY   82  63  52 E8        30.41F
ORLANDO INTL   FAIR      82  62  50 E10       30.40F
KISSIMMEE      FAIR      81  63  54 E8        30.41F
WINTER HAVEN   FAIR      82  62  50 E8        30.41F
BARTOW         MOSUNNY   79  61  53 E9        30.40F
SEBRING        FAIR      84  63  48 SE9       30.39F
OKEECHOBEE     PTSUNNY   82  64  54 E8        30.38F

$$
FLZ041-047-054-059-064-141-147-221800-
EAST CENTRAL FLORIDA

CITY           SKY/WX    TMP DP  RH WIND       PRES   REMARKS
ORMOND BEACH   SUNNY     77  66  69 E12G17    30.44S
DAYTONA BEACH  FAIR      80  67  64 E9G18     30.43F
DELAND         PTSUNNY   79  63  57 E9        30.42F
NEW SMYRNA BEA MOSUNNY   79  66  65 SE12      30.44S
JFK SPACE CTR  FAIR      80  70  72 SE10      30.41F
TITUSVILLE     MOSUNNY   82  64  54 E12       30.42F
CAPE CANAVERAL FAIR      81  66  60 SE8       30.40F
PATRICK AFB    FAIR      79  71  76 E8        30.41F
MELBOURNE      FAIR      82  66  58 E13       30.41S
VERO BEACH     FAIR      80  66  62 E15       30.41S
FT PIERCE      FAIR      80  67  64 E15       30.40S
STUART         MOSUNNY   82  68  61 E16       30.41S

STATION/POSITION SKY/WX   TEMP    WIND        PRES    WAVE   SWELL
                          AIR SEA DIR/SP/G            HT/PER HT/PER
                          (F)     (DEG/KT/KT) (MB)    (FT/S) (FT/S)
28.5N   80.2W              74 73  110/ 10/ 14 1030.0F   5/ 9   5/ 9
TRIDENT PIER               78 74   70/  6/  9 1031.3F
28.4N   80.5W                 73                N/A     3/ 9   2/13
27.5N   80.2W                 75                N/A     4/11   2/11

$$
FLZ050-056-061-142-242-148-248-149-249-151-251-155-255-
160-260-221800-
WEST CENTRAL FLORIDA

CITY           SKY/WX    TMP DP  RH WIND       PRES   REMARKS
CRYSTAL RIVER  PTSUNNY   81  63  54 E10G16    30.40F
BROOKSVILLE    FAIR      81  61  50 SE12      30.40F
CLEARWATER AIR FAIR      79  63  57 SE12      30.39F
ST PETE CLEARW FAIR      81  66  60 E9        30.39F
TAMPA INTL     FAIR      82  63  52 E8        30.39F
TAMPA EXEC     CLOUDY    82  63  51 SE9       30.40S
PLANT CITY     FAIR      84  63  48 E8        30.41F
MACDILL AFB    FAIR      82  64  54 SE8       30.38F
PETER O KNIGHT CLOUDY    79  63  57 E8        30.39F
ST PETERSBURG  FAIR      79  67  66 E6        30.37F
SARASOTA       FAIR      81  65  58 E15G21    30.35F
VENICE         FAIR      82  66  57 E9G17     30.37S

STATION/POSITION SKY/WX   TEMP    WIND        PRES    WAVE   SWELL
                          AIR SEA DIR/SP/G            HT/PER HT/PER
                          (F)     (DEG/KT/KT) (MB)    (FT/S) (FT/S)
27.3N   84.2W                 74                N/A     5/ 7
CLEARWATER BEACH              72  100/ 10/ 14 1029.0F
MIDDLE TAMPA BAY           79     110/  9/ 12 1029.0F
VENICE                     79 74   90/ 10/ 13 1028.2F

$$
FLZ066-069-070-075>078-162-262-165-265-221800-
SOUTHWEST FLORIDA AND KEYS

CITY           SKY/WX    TMP DP  RH WIND       PRES   REMARKS
PUNTA GORDA    PTSUNNY   82  65  56 SE12      30.38F
FT MYERS       CLOUDY    81  67  62 E13       30.35F
SOUTHWEST INTL CLOUDY    80  66  62 SE13      30.36S
NAPLES         PTSUNNY   82  68  62 E13       30.34F
IMMOKALEE      CLOUDY    82  66  57 E13       30.37
MARATHON       FAIR      81  67  62 E16G25    30.32S
KEY WEST NAS   FAIR      80  75  84 E18       30.31F
KEY WEST INTL  LGT RAIN  79  72  79 E16       30.31F

STATION/POSITION SKY/WX   TEMP    WIND        PRES    WAVE   SWELL
                          AIR SEA DIR/SP/G            HT/PER HT/PER
                          (F)     (DEG/KT/KT) (MB)    (FT/S) (FT/S)
NAPLES                        74  100/  7/ 10 1027.5F
DRY TORTUGAS               74      80/ 20/ 22 1026.0F
SAND KEY                   77                 1026.7F
LONG KEY                   77 76  100/ 17     1026.7F
MOLASSES REEF              76 77  100/ 18/ 20 1027.3F

$$
FLZ067-068-071>074-168-172>174-221800-
SOUTHEAST FLORIDA

CITY           SKY/WX    TMP DP  RH WIND       PRES   REMARKS
W PALM BEACH   PTSUNNY   81  68  64 E17       30.38F
BOCA RATON     MOSUNNY   81  68  65 E12       30.38S
FT LAUDER-EXEC FAIR      81  69  67 E18G26    30.36F
FT LAUDERDALE  PTSUNNY   81  69  67 E21G26    30.35F
POMPANO BEACH  FAIR      80  69  69 E16G22    30.37F
PEMBROKE PINES PTSUNNY   84  67  56 E16G25    30.37F
OPA LOCKA      PTSUNNY   81  67  62 SE20G26   30.36F
MIAMI          PTSUNNY   80  67  64 E16G28    30.36F
WEST KENDALL   PTSUNNY   81  68  64 E18G26    30.35S
HOMESTEAD      FAIR      80  70  70 E17G24    30.34F

STATION/POSITION SKY/WX   TEMP    WIND        PRES    WAVE   SWELL
                          AIR SEA DIR/SP/G            HT/PER HT/PER
                          (F)     (DEG/KT/KT) (MB)    (FT/S) (FT/S)
PORT EVERGLADES            78     100/  7/ 14 1028.3F
VIRGINIA KEY                  77   70/ 14/ 18 1027.2F
LAKE WORTH                 76 76  100/ 15/ 17 1029.7F
FOWEY ROCKS                76 76   80/ 21/ 22 1028.3F
SETTLEMENT POINT           76      80/ 10/ 12 1029.1F

$$





USA.gov is the U.S. government's official web portal to all federal, state and local government web resources and services.